Regional Weather Roundup
Issued by NWS

Home | Current Version | Previous Version | Text Only | Print | Product List | Glossary Off
Versions: 1 2 3 4 5 6 7 8 9 10 11 12 13 14 15 16 17 18 19 20 21 22 23 24 25 26 27 28 29 30 31 32 33 34 35 36 37 38 39 40 41 42 43 44 45 46 47 48 49 50

000
ASUS43 KMKX 231410
RWRWI

WISCONSIN REGIONAL WEATHER ROUNDUP
NATIONAL WEATHER SERVICE MILWAUKEE/SULLIVAN WI
800 AM CST MON JAN 23 2017

NOTE: "FAIR" INDICATES FEW OR NO CLOUDS BELOW 12,000 FEET WITH NO
SIGNIFICANT WEATHER AND/OR OBSTRUCTIONS TO VISIBILITY.

WIZ001-002-006>008-014>016-023>028-231500-
NORTHWEST WISCONSIN

CITY           SKY/WX    TMP DP  RH WIND       PRES   REMARKS
SUPERIOR ARPT  CLOUDY    34  34 100 CALM      29.77S
ASHLAND        CLOUDY    34  33  96 SW5       29.77R FOG     WCI  30
HAYWARD        CLOUDY    35  34  96 CALM      29.76R FOG
SIREN          MIX PCPN  33  33 100 W5        29.78S WCI  29
CUMBERLAND     FOG       32  32 100 W3        29.77R VSB 1/2
RICE LAKE      FOG       33  33 100 CALM      29.79R VSB 1/4
CHETEK         FOG       33  33 100 CALM      29.78R VSB 1
LADYSMITH      FOG       34  34  99 CALM      29.78R VSB 1/4
EAU CLAIRE     FOG       33  33 100 CALM      29.79R VSB 1
MENOMONIE        N/A    N/A N/A N/A MISG        N/A
NEW RICHMOND   CLOUDY    32  32 100 W8        29.79S FOG     WCI  25
OSCEOLA        LGT SNOW  33  33 100 W3        29.82S
$$

WIZ003>005-009-010-017-018-231500-
NORTH CENTRAL WISCONSIN

CITY           SKY/WX    TMP DP  RH WIND       PRES   REMARKS
MANITOWISH WTR FOG       32  32 100 CALM      29.73R VSB 1/4
ARBOR VITAE    CLOUDY    34  33  97 CALM      29.74R FOG
WOODRUFF       CLOUDY    34  33  97 CALM      29.74R FOG
RHINELANDER    CLOUDY    33  33 100 CALM      29.75R FOG
EAGLE RIVER    FOG       32  32 100 CALM      29.73R VSB 1/4
LAND O LAKES   CLOUDY    33  33 100 CALM      29.75R FOG
PHILLIPS       FOG       32  32 100 CALM      29.74R VSB 1/4
TOMAHAWK       FOG       32  32  99 CALM      29.76R VSB 1
MEDFORD        FOG       32  32  99 CALM      29.76R VSB<1/4
MERRILL        CLOUDY    33  33 100 W3          N/A
$$

WIZ029-030-035-036-043>047-231500-
CENTRAL WISCONSIN

CITY           SKY/WX    TMP DP  RH WIND       PRES   REMARKS
WAUSAU         CLOUDY    34  33  96 NW5       29.75R WCI  30
MOSINEE        CLOUDY    34  34 100 W7        29.77R WCI  28
MARSHFIELD     FOG       33  32  96 CALM      29.77R VSB 1/4
STEVENS POINT  CLOUDY    32  32 100 W3        29.78R
WAUPACA        CLOUDY    37  36  96 CALM      29.78R
WAUTOMA        CLOUDY    34  33  96 W3        29.79R
WISC RAPIDS    CLOUDY    34  34 100 W3        29.79R
CAMP DOUGLAS   FOG       36  36 100 NW3       29.79R VSB 3/4
$$

WIZ011>013-019>022-031-037>040-048>050-231500-
NORTHEAST WISCONSIN

CITY           SKY/WX    TMP DP  RH WIND       PRES   REMARKS
ANTIGO         CLOUDY    32  32 100 N3        29.75R
SHAWANO        CLOUDY    35  34  94 CALM      29.77R
OCONTO         CLOUDY    35  34  96 CALM      29.76R
STURGEON BAY   CLOUDY    35  34  96 NW6       29.75S FOG     WCI  30
GREEN BAY      CLOUDY    37  36  96 NW5       29.76R WCI  33
MANITOWOC      CLOUDY    37  36  96 CALM      29.76R FOG
APPLETON       CLOUDY    34  34 100 NW6       29.74S WCI  29
CLINTONVILLE   CLOUDY    34  34 100 W3        29.77R
OSHKOSH        FOG       35  34  96 W6        29.76R VSB 1/4 WCI  30
$$

WIZ032>034-041-042-053>061-231500-
SOUTHWEST WISCONSIN

CITY           SKY/WX    TMP DP  RH WIND       PRES   REMARKS
LA CROSSE      CLOUDY    37  33  85 CALM      29.82R FOG
SPARTA         CLOUDY    33  33 100 CALM      29.82R FOG
VIROQUA        CLOUDY    33  33 100 CALM      29.80R VSB 1/2
BOSCOBEL       CLOUDY    37  35  92 CALM      29.82R
PRAIRIE DU CHI CLOUDY    34  32  92 W5        29.83R WCI  30
PLATTEVILLE    CLOUDY    35  35 100 NW5       29.80S WCI  31
$$

WIZ056-057-062-063-064-067-068-231500-
SOUTH CENTRAL WISCONSIN

CITY           SKY/WX    TMP DP  RH WIND       PRES   REMARKS
REEDSBURG      FOG       34  34 100 NW3       29.79R VSB 1/2
BARABOO/DELLS  CLOUDY    34  34  99 CALM      29.79R FOG
LONE ROCK      CLOUDY    36  34  92 W5        29.82R FOG     WCI  32
MINERAL POINT  FOG       36  36 100 NW3       29.79R VSB<1/4
MADISON        CLOUDY    35  34  96 NW6       29.79R WCI  30
MIDDLETON      CLOUDY    37  37 100 NW6       29.79R WCI  32
WATERTOWN      CLOUDY    35  35 100 NW6       29.77R FOG     WCI  29
MONROE         CLOUDY    34  34 100 NW7       29.78R FOG     WCI  28
JANESVILLE     CLOUDY    37  37 100 NW8       29.77R FOG     WCI  31
$$

WIZ051-052-058>065-066-070>072-231500-
SOUTHEAST WISCONSIN

CITY           SKY/WX    TMP DP  RH WIND       PRES   REMARKS
MILWAUKEE      CLOUDY    39  35  86 NW9       29.75S WCI  33
WAUKESHA       FOG       34  34 100 NW7       29.77R VSB 1/2 WCI  28
MILWAUKEE/TIMM CLOUDY    36  34  93 NW6       29.76S FOG     WCI  31
RACINE         CLOUDY    38  35  89 NW6       29.75F WCI  33
KENOSHA        CLOUDY    38  35  89 NW8       29.74S WCI  32
FOND DU LAC    FOG       36  33  89 NW6       29.76R VSB 3/4 WCI  31
SHEBOYGAN      CLOUDY    36  35  96 N3        29.76R FOG
WEST BEND      FOG       34  34 100 NW5       29.76R VSB 1/4 WCI  30
JUNEAU         FOG       34  33  99 NW3       29.77S VSB 1/4
$$

LSZ147-162-231500-
LAKE SUPERIOR

STATION/POSITION TIME  TEMP    WIND        PRES    WAVE
                       AIR SEA DIR/SP/G            HT/PER
                 (UTC) (F)     (DEG/KT/KT) (MB)    (FT/S)
DEVILS ISLAND    1300   34     250/  7/  9 1008.1F
PORT WING        1240   35     240/  7/  9 1008.1S
SAXON HARBOR     1230   35     190/  3/  5 1007.5S
$$

LMZ867-665-643>646-231500-
LAKE MICHIGAN

STATION/POSITION TIME  TEMP    WIND        PRES    WAVE
                       AIR SEA DIR/SP/G            HT/PER
                 (UTC) (F)     (DEG/KT/KT) (MB)    (FT/S)
NORTHPORT PIER   1240   34     320/  5/  7 1007.1R
SISTER BAY       1305   34        CALM       N/A
KEWAUNEE LAKESHO 1324   36     320/  3/  6 1007.1
SHEBOYGAN LAKESH 1300   37     330/  6/  7 1007.6R
PORT WASHINGTON  1240   37     300/  4/  7 1008.5R
KENOSHA   LAKESH 1300   38     320/  6/  9 1007.5
$$

TC  - TEMPERATURE IN CELSIUS
VSB - VISIBILITY IN STATUTE MILES
WCI - WIND CHILL INDEX
HX  - HEAT INDEX





USA.gov is the U.S. government's official web portal to all federal, state and local government web resources and services.